User: anonymous   Login
Location: Brno
(49.2000°N, 16.6330°E)
Time: 11:12:02
(UTC+02:00)
Language:

ISS - Orbit

View from above orbital plane
View from above orbital plane
View from above satellite
View from above satellite

Ground track
Ground track

The orbit data is extracted from the following two-line orbital elements,

1 25544U 98067A   16205.21483444 -.00000470  00000-0  19186-6 0  9997
2 25544  51.6425 238.2794 0001995  70.6102  15.6762 15.54868233 10597
Epoch (UTC): 23 July 2016 05:09:21
Eccentricity: 0.0001995
inclination: 51.6425°
perigee height: 401 km
apogee height: 404 km
right ascension of ascending node: 238.2794°
argument of perigee: 70.6102°
revolutions per day: 15.54868233
mean anomaly at epoch: 15.6762°
orbit number at epoch: 1059

The dashed part of the orbit path shows where the satellite is in the earth's shadow,  

DLR